Flood From: 22-02-2018 06:00 Until: 23-02-2018 06:00 warning for: Flood Level: Yellow info button

Although rather usual in this region, locally or potentially dangerous phenomena are expected. (such as local winds, summer thunderstorms, rising streams or high waves) Be aware and pay attention to the latest weather updates, especially if you carry out activities exposed to weather or close to a stream or shoreline. 


Meteo18 Weather Cam more information Meteo18 Weather Cam


Thunder radar more information blitzortung!


Rain radar more information rain snow radar


Visit our other weather sites:

Template documentation
and downloads

And another site



Weather Underground History page Text

Daily Summary for January 23, 2018 Units:  English    Metric   Both
« Previous Day
Next Day »
Daily Weekly Monthly Yearly Custom
  High: Low: Average:
Temperature: TemperatureC °F 6.7 °F 8.3 °F
Dew Point: DewpointC °F 5.7 °F 7.4 °F
Humidity: Humidity % 86 % 94 %
Wind Speed: WindSpeedKMH mph 0.0 mph 7.4 mph
Wind Gust: WindSpeedGustKMH mph - -
Wind:- - SW
Pressure: PressurehPa in 1025.3 in -
Precipitation: 0.3 in    
Historical Graphs
 
 
Tabular Data for January 23, 2018
Time Temperature Dew Point Pressure Wind Wind Speed Wind Gust Humidity Rainfall Rate (Hourly)
TemperatureC °F DewpointC °F PressurehPa in Calm     Humidity % HourlyPrecipMM in
00:04 7.9 °F 6.7 °F 1025.6 in SW 1.4 mph 4.8 mph 92 % 0.0 in
00:10 7.9 °F 6.7 °F 1025.6 in WSW 1.4 mph 3.2 mph 92 % 0.0 in
00:16 7.9 °F 6.7 °F 1025.6 in Calm   4.8 mph 92 % 0.0 in
00:22 7.8 °F 6.6 °F 1025.6 in WSW 3.2 mph 6.4 mph 92 % 0.0 in
00:28 7.8 °F 6.6 °F 1025.6 in WSW 7.9 mph 9.7 mph 92 % 0.0 in
00:34 7.8 °F 6.6 °F 1025.6 in SW 3.2 mph 6.4 mph 92 % 0.0 in
00:40 7.8 °F 6.6 °F 1025.6 in WSW 7.9 mph 9.7 mph 92 % 0.0 in
00:46 7.8 °F 6.6 °F 1025.6 in WSW 3.2 mph 6.4 mph 92 % 0.0 in
00:52 7.8 °F 6.6 °F 1025.3 in West 7.9 mph 8.0 mph 92 % 0.0 in
00:58 7.8 °F 6.6 °F 1025.3 in WSW 3.2 mph 6.4 mph 92 % 0.0 in
01:04 7.8 °F 6.6 °F 1025.6 in WSW 3.2 mph 4.8 mph 92 % 0.0 in
01:10 7.8 °F 6.4 °F 1025.6 in WSW 4.7 mph 4.8 mph 91 % 0.0 in
01:16 7.8 °F 6.4 °F 1025.6 in Calm   3.2 mph 91 % 0.0 in
01:22 7.8 °F 6.4 °F 1025.6 in WSW 3.2 mph 3.2 mph 91 % 0.0 in
01:28 7.8 °F 6.4 °F 1025.6 in West 1.4 mph 3.2 mph 91 % 0.0 in
01:34 7.8 °F 6.6 °F 1025.6 in Calm   3.2 mph 92 % 0.0 in
01:40 7.8 °F 6.6 °F 1025.6 in West 3.2 mph 4.8 mph 92 % 0.0 in
01:46 7.8 °F 6.4 °F 1025.6 in West 3.2 mph 4.8 mph 91 % 0.0 in
01:52 7.8 °F 6.4 °F 1025.6 in West 3.2 mph 3.2 mph 91 % 0.0 in
01:58 7.8 °F 6.4 °F 1025.6 in WSW 3.2 mph 4.8 mph 91 % 0.0 in
02:04 7.8 °F 6.3 °F 1025.6 in WSW 3.2 mph 3.2 mph 90 % 0.0 in
02:10 7.9 °F 6.4 °F 1025.6 in West 3.2 mph 3.2 mph 90 % 0.0 in
02:16 7.9 °F 6.2 °F 1025.6 in West 1.4 mph 4.8 mph 89 % 0.0 in
02:22 7.9 °F 6.2 °F 1025.6 in Calm   3.2 mph 89 % 0.0 in
02:28 8.0 °F 6.0 °F 1025.6 in West 3.2 mph 6.4 mph 87 % 0.0 in
02:34 8.1 °F 5.9 °F 1025.6 in WSW 3.2 mph 6.4 mph 86 % 0.0 in
02:41 8.1 °F 5.9 °F 1025.6 in WSW 3.2 mph 4.8 mph 86 % 0.0 in
02:47 8.1 °F 6.1 °F 1026.0 in SW 1.4 mph 6.4 mph 87 % 0.0 in
02:53 8.0 °F 6.1 °F 1026.0 in SW 3.2 mph 6.4 mph 88 % 0.0 in
02:59 7.9 °F 6.0 °F 1026.0 in SW 1.4 mph 4.8 mph 88 % 0.0 in
03:11 7.9 °F 6.2 °F 1026.0 in SW 3.2 mph 4.8 mph 89 % 0.0 in
03:17 7.8 °F 6.3 °F 1026.0 in SW 4.7 mph 8.0 mph 90 % 0.0 in
03:29 7.7 °F 6.2 °F 1026.0 in SW 3.2 mph 6.4 mph 90 % 0.0 in
03:35 7.7 °F 6.2 °F 1026.0 in SSW 1.4 mph 3.2 mph 90 % 0.0 in
03:41 7.6 °F 6.2 °F 1026.0 in Calm   1.6 mph 91 % 0.0 in
03:47 7.5 °F 6.1 °F 1026.0 in Calm   1.6 mph 91 % 0.0 in
03:53 7.4 °F 6.2 °F 1026.0 in SW 3.2 mph 6.4 mph 92 % 0.0 in
03:59 7.4 °F 6.3 °F 1026.3 in WSW 6.4 mph 6.4 mph 93 % 0.0 in
04:05 7.4 °F 6.2 °F 1026.3 in WSW 3.2 mph 4.8 mph 92 % 0.0 in
04:11 7.5 °F 6.1 °F 1026.0 in West 1.4 mph 3.2 mph 91 % 0.0 in
04:17 7.5 °F 6.1 °F 1026.0 in West 1.4 mph 3.2 mph 91 % 0.0 in
04:23 7.5 °F 6.1 °F 1026.0 in Calm   3.2 mph 91 % 0.0 in
04:29 7.5 °F 6.1 °F 1026.3 in WSW 1.4 mph 3.2 mph 91 % 0.0 in
04:31 7.5 °F 6.1 °F 1026.3 in Calm   3.2 mph 91 % 0.0 in
04:37 7.4 °F 6.0 °F 1026.3 in Calm   1.6 mph 91 % 0.0 in
04:43 7.4 °F 6.0 °F 1026.3 in SSW 1.4 mph 1.6 mph 91 % 0.0 in
04:49 7.4 °F 6.0 °F 1026.3 in Calm     91 % 0.0 in
04:55 7.2 °F 5.8 °F 1026.3 in SSW 1.4 mph 3.2 mph 91 % 0.0 in
05:01 6.9 °F 5.7 °F 1026.3 in SSW 1.4 mph 4.8 mph 92 % 0.0 in
05:07 6.9 °F 5.8 °F 1026.3 in WSW 1.4 mph 4.8 mph 93 % 0.0 in
05:09 6.9 °F 5.8 °F 1026.3 in West 3.2 mph 3.2 mph 93 % 0.0 in
05:15 6.9 °F 5.8 °F 1026.3 in SW 1.4 mph 3.2 mph 93 % 0.0 in
05:21 6.9 °F 6.0 °F 1026.3 in SW 4.7 mph 4.8 mph 94 % 0.0 in
05:27 7.1 °F 6.2 °F 1026.3 in SSW 3.2 mph 6.4 mph 94 % 0.0 in
05:33 7.2 °F 6.3 °F 1026.3 in WSW 6.4 mph 8.0 mph 94 % 0.0 in
05:39 7.2 °F 6.1 °F 1026.3 in SW 4.7 mph 8.0 mph 93 % 0.0 in
05:45 7.2 °F 6.1 °F 1026.3 in SW 4.7 mph 4.8 mph 93 % 0.0 in
05:51 7.2 °F 6.3 °F 1026.3 in SW 6.4 mph 8.0 mph 94 % 0.0 in
05:57 7.2 °F 6.3 °F 1026.3 in WSW 4.7 mph 6.4 mph 94 % 0.0 in
06:03 7.2 °F 6.3 °F 1026.3 in SW 4.7 mph 8.0 mph 94 % 0.0 in
06:09 7.2 °F 6.5 °F 1026.3 in West 3.2 mph 9.7 mph 95 % 0.0 in
06:15 7.2 °F 6.5 °F 1026.3 in SW 7.9 mph 9.7 mph 95 % 0.0 in
06:27 7.3 °F 6.6 °F 1026.6 in SW 7.9 mph 8.0 mph 95 % 0.0 in
06:39 7.2 °F 6.5 °F 1026.6 in SSW 6.4 mph 11.3 mph 95 % 0.0 in
06:45 7.2 °F 6.6 °F 1026.6 in SSW 11.1 mph 12.9 mph 96 % 0.0 in
06:51 7.1 °F 6.5 °F 1026.3 in SSW 11.1 mph 16.1 mph 96 % 0.0 in
07:03 6.8 °F 6.2 °F 1026.6 in SW 9.7 mph 9.7 mph 96 % 0.0 in
07:09 6.8 °F 6.2 °F 1026.6 in WSW 7.9 mph 9.7 mph 96 % 0.0 in
07:15 6.8 °F 6.4 °F 1026.6 in SW 3.2 mph 14.5 mph 97 % 0.0 in
07:21 6.8 °F 6.4 °F 1026.6 in SW 7.9 mph 12.9 mph 97 % 0.0 in
07:27 6.7 °F 6.3 °F 1026.6 in SW 6.4 mph 12.9 mph 97 % 0.0 in
07:33 6.8 °F 6.4 °F 1026.6 in West 9.7 mph 19.3 mph 97 % 0.0 in
07:39 6.7 °F 6.3 °F 1026.6 in SW 4.7 mph 14.5 mph 97 % 0.0 in
07:45 6.8 °F 6.4 °F 1026.6 in SW 9.7 mph 11.3 mph 97 % 0.0 in
07:51 6.8 °F 6.4 °F 1026.6 in SW 6.4 mph 11.3 mph 97 % 0.0 in
07:57 6.8 °F 6.4 °F 1026.6 in WSW 1.4 mph 8.0 mph 97 % 0.0 in
08:03 6.8 °F 6.4 °F 1026.6 in SSW 6.4 mph 12.9 mph 97 % 0.0 in
08:09 6.8 °F 6.4 °F 1026.6 in SW 9.7 mph 11.3 mph 97 % 0.0 in
08:15 6.9 °F 6.5 °F 1026.6 in WSW 4.7 mph 11.3 mph 97 % 0.0 in
08:21 6.9 °F 6.5 °F 1026.6 in WSW 4.7 mph 9.7 mph 97 % 0.0 in
08:33 6.9 °F 6.5 °F 1027.0 in WSW 4.7 mph 8.0 mph 97 % 0.0 in
08:39 6.9 °F 6.5 °F 1027.3 in SW 9.7 mph 12.9 mph 97 % 0.0 in
08:45 7.0 °F 6.6 °F 1027.3 in SW 7.9 mph 14.5 mph 97 % 0.0 in
08:51 6.9 °F 6.5 °F 1027.3 in SW 4.7 mph 14.5 mph 97 % 0.0 in
08:57 6.9 °F 6.5 °F 1027.3 in West 13.0 mph 14.5 mph 97 % 0.0 in
09:03 6.9 °F 6.5 °F 1027.3 in WSW 14.3 mph 16.1 mph 97 % 0.0 in
09:15 6.9 °F 6.5 °F 1027.3 in West 11.1 mph 14.5 mph 97 % 0.0 in
09:21 6.9 °F 6.5 °F 1027.3 in SW 4.7 mph 6.4 mph 97 % 0.0 in
09:27 6.9 °F 6.5 °F 1027.3 in SW 3.2 mph 8.0 mph 97 % 0.0 in
09:39 7.0 °F 6.6 °F 1027.3 in SW 7.9 mph 19.3 mph 97 % 0.0 in
09:51 7.1 °F 6.5 °F 1027.3 in WSW 11.1 mph 14.5 mph 96 % 0.0 in
09:57 7.1 °F 6.5 °F 1027.3 in WSW 7.9 mph 9.7 mph 96 % 0.0 in
10:03 7.1 °F 6.5 °F 1027.3 in WSW 9.7 mph 9.7 mph 96 % 0.0 in
10:09 7.1 °F 6.5 °F 1027.7 in SSW 6.4 mph 11.3 mph 96 % 0.0 in
10:16 7.2 °F 6.6 °F 1027.7 in SW 7.9 mph 8.0 mph 96 % 0.0 in
10:21 7.2 °F 6.6 °F 1027.7 in SSW 3.2 mph 8.0 mph 96 % 0.0 in
10:28 7.3 °F 6.6 °F 1027.7 in SSW 3.2 mph 9.7 mph 95 % 0.0 in
10:34 7.3 °F 6.6 °F 1027.7 in SW 4.7 mph 11.3 mph 95 % 0.0 in
10:40 7.4 °F 6.7 °F 1027.7 in SSW 7.9 mph 11.3 mph 95 % 0.0 in
10:46 7.6 °F 6.7 °F 1027.7 in SW 7.9 mph 14.5 mph 94 % 0.0 in
10:52 7.6 °F 6.7 °F 1027.7 in West 3.2 mph 9.7 mph 94 % 0.0 in
10:58 7.7 °F 6.8 °F 1027.7 in SSW 13.0 mph 13.0 mph 94 % 0.0 in
11:04 7.9 °F 6.8 °F 1027.7 in SSE 6.4 mph 11.3 mph 93 % 0.0 in
11:10 7.9 °F 6.8 °F 1027.7 in SW 7.9 mph 12.9 mph 93 % 0.0 in
11:16 8.1 °F 6.9 °F 1027.7 in SSW 6.4 mph 14.5 mph 92 % 0.0 in
11:22 8.2 °F 6.8 °F 1028.0 in SSW 7.9 mph 16.1 mph 91 % 0.0 in
11:28 8.2 °F 6.8 °F 1028.0 in SW 9.7 mph 14.5 mph 91 % 0.0 in
11:40 8.4 °F 6.9 °F 1028.0 in SW 7.9 mph 14.5 mph 90 % 0.0 in
11:58 8.5 °F 7.0 °F 1027.7 in SSW 4.7 mph 12.9 mph 90 % 0.0 in
12:10 8.6 °F 7.1 °F 1027.3 in SSW 7.9 mph 16.1 mph 90 % 0.0 in
12:16 8.6 °F 7.1 °F 1027.3 in SSW 13.0 mph 16.1 mph 90 % 0.0 in
12:22 8.6 °F 7.1 °F 1027.3 in South 6.4 mph 17.7 mph 90 % 0.0 in
12:28 8.6 °F 7.1 °F 1027.3 in SSW 11.1 mph 17.7 mph 90 % 0.0 in
12:34 8.7 °F 7.2 °F 1027.3 in SW 11.1 mph 22.5 mph 90 % 0.0 in
12:40 8.7 °F 7.2 °F 1027.3 in SSW 7.9 mph 17.7 mph 90 % 0.0 in
12:46 8.8 °F 7.2 °F 1027.3 in SW 14.3 mph 16.1 mph 90 % 0.0 in
12:52 8.8 °F 7.2 °F 1027.0 in SSW 7.9 mph 16.1 mph 90 % 0.0 in
12:58 8.8 °F 7.2 °F 1027.0 in SW 11.1 mph 16.1 mph 90 % 0.0 in
13:04 8.9 °F 7.3 °F 1027.0 in SSW 16.3 mph 19.3 mph 90 % 0.0 in
13:10 9.1 °F 7.5 °F 1027.0 in SW 14.3 mph 20.9 mph 90 % 0.0 in
13:16 9.2 °F 7.5 °F 1027.0 in SW 17.7 mph 20.9 mph 89 % 0.0 in
13:22 9.3 °F 7.6 °F 1027.0 in SW 11.1 mph 19.3 mph 89 % 0.0 in
13:28 9.4 °F 7.7 °F 1027.0 in SW 9.7 mph 19.3 mph 89 % 0.0 in
13:34 9.4 °F 7.5 °F 1027.0 in SSW 13.0 mph 20.9 mph 88 % 0.0 in
13:40 9.4 °F 7.7 °F 1027.0 in SSW 13.0 mph 19.3 mph 89 % 0.0 in
13:52 9.5 °F 7.8 °F 1026.6 in SW 9.7 mph 19.3 mph 89 % 0.0 in
13:58 9.6 °F 7.7 °F 1026.6 in SW 20.9 mph 25.7 mph 88 % 0.0 in
14:04 9.5 °F 7.8 °F 1026.6 in SW 14.3 mph 17.7 mph 89 % 0.0 in
14:10 9.3 °F 7.7 °F 1026.6 in SW 14.3 mph 24.1 mph 90 % 0.0 in
14:16 9.2 °F 7.8 °F 1026.6 in SW 17.7 mph 20.9 mph 91 % 0.0 in
14:22 9.1 °F 7.9 °F 1026.6 in SSW 13.0 mph 19.3 mph 92 % 0.0 in
14:28 9.2 °F 8.1 °F 1026.6 in SSW 14.3 mph 19.3 mph 93 % 0.0 in
14:34 9.0 °F 7.9 °F 1026.6 in SW 16.3 mph 24.1 mph 93 % 0.0 in
14:40 8.9 °F 8.0 °F 1026.6 in SW 13.0 mph 17.7 mph 94 % 0.0 in
14:46 8.9 °F 8.1 °F 1026.6 in SSW 9.7 mph 16.1 mph 95 % 0.0 in
14:52 8.8 °F 8.0 °F 1026.6 in SSW 7.9 mph 14.5 mph 95 % 0.0 in
15:04 8.7 °F 8.1 °F 1026.6 in SSW 9.7 mph 16.1 mph 96 % 0.0 in
15:10 8.8 °F 8.2 °F 1026.6 in SW 13.0 mph 19.3 mph 96 % 0.0 in
15:16 8.8 °F 8.2 °F 1026.6 in South 13.0 mph 17.7 mph 96 % 0.0 in
15:22 8.8 °F 8.2 °F 1026.6 in SW 16.3 mph 20.9 mph 96 % 0.0 in
15:28 8.8 °F 8.2 °F 1026.6 in SW 13.0 mph 16.1 mph 96 % 0.0 in
15:34 8.9 °F 8.3 °F 1026.6 in SW 7.9 mph 12.9 mph 96 % 0.0 in
15:40 8.8 °F 8.2 °F 1026.6 in SSW 9.7 mph 17.7 mph 96 % 0.0 in
15:46 8.7 °F 8.1 °F 1026.6 in South 9.7 mph 12.9 mph 96 % 0.0 in
15:52 8.7 °F 8.1 °F 1026.6 in SSW 14.3 mph 17.7 mph 96 % 0.0 in
15:58 8.8 °F 8.3 °F 1026.6 in SSW 9.7 mph 14.5 mph 97 % 0.0 in
16:04 8.8 °F 8.3 °F 1026.6 in SW 11.1 mph 14.5 mph 97 % 0.0 in
16:10 8.8 °F 8.3 °F 1026.6 in SSW 9.7 mph 16.1 mph 97 % 0.0 in
16:16 8.8 °F 8.3 °F 1026.6 in SSW 9.7 mph 12.9 mph 97 % 0.0 in
16:22 8.8 °F 8.3 °F 1026.6 in South 13.0 mph 13.0 mph 97 % 0.0 in
16:28 8.8 °F 8.3 °F 1026.6 in SSW 9.7 mph 17.7 mph 97 % 0.0 in
16:34 8.8 °F 8.3 °F 1026.6 in SW 9.7 mph 14.5 mph 97 % 0.0 in
16:40 8.8 °F 8.3 °F 1026.6 in SSW 13.0 mph 14.5 mph 97 % 0.0 in
16:46 8.8 °F 8.3 °F 1026.6 in SSW 7.9 mph 11.3 mph 97 % 0.0 in
16:52 8.8 °F 8.3 °F 1026.6 in SW 7.9 mph 9.7 mph 97 % 0.0 in
16:58 8.9 °F 8.4 °F 1026.6 in SSW 7.9 mph 12.9 mph 97 % 0.0 in
17:04 8.9 °F 8.4 °F 1026.6 in SSW 7.9 mph 11.3 mph 97 % 0.0 in
17:12 8.9 °F 8.4 °F 1026.6 in SSW 9.7 mph 9.7 mph 97 % 0.0 in
17:18 8.9 °F 8.4 °F 1026.6 in SSW 6.4 mph 12.9 mph 97 % 0.0 in
17:24 8.9 °F 8.4 °F 1026.6 in SSW 6.4 mph 14.5 mph 97 % 0.0 in
17:30 8.9 °F 8.4 °F 1026.6 in SSW 7.9 mph 11.3 mph 97 % 0.0 in
17:36 9.0 °F 8.5 °F 1026.6 in South 7.9 mph 11.3 mph 97 % 0.0 in
17:42 9.0 °F 8.5 °F 1026.6 in SW 7.9 mph 12.9 mph 97 % 0.0 in
17:48 9.0 °F 8.5 °F 1026.6 in SSW 6.4 mph 9.7 mph 97 % 0.0 in
17:54 9.0 °F 8.5 °F 1026.6 in South 4.7 mph 9.7 mph 97 % 0.0 in
18:00 9.0 °F 8.5 °F 1026.6 in South 4.7 mph 9.7 mph 97 % 0.0 in
18:06 9.0 °F 8.5 °F 1026.6 in SSW 7.9 mph 12.9 mph 97 % 0.0 in
18:12 9.1 °F 8.6 °F 1026.6 in SSW 6.4 mph 12.9 mph 97 % 0.0 in
18:18 9.1 °F 8.6 °F 1026.6 in South 4.7 mph 9.7 mph 97 % 0.0 in
18:24 9.1 °F 8.8 °F 1027.0 in SSW 7.9 mph 9.7 mph 98 % 0.0 in
18:30 9.1 °F 8.8 °F 1027.0 in SSW 6.4 mph 8.0 mph 98 % 0.0 in
18:36 9.1 °F 8.8 °F 1027.0 in SSW 9.7 mph 9.7 mph 98 % 0.0 in
18:42 9.1 °F 8.8 °F 1027.0 in SSW 4.7 mph 8.0 mph 98 % 0.0 in
18:48 9.2 °F 8.9 °F 1027.0 in SSW 4.7 mph 8.0 mph 98 % 0.3 in
18:54 9.2 °F 8.9 °F 1027.0 in SSW 4.7 mph 6.4 mph 98 % 0.3 in
19:00 9.2 °F 8.9 °F 1027.0 in South 3.2 mph 6.4 mph 98 % 0.3 in
19:06 9.2 °F 8.9 °F 1027.0 in SSW 3.2 mph 4.8 mph 98 % 0.3 in
19:13 9.2 °F 8.9 °F 1027.0 in SSW 3.2 mph 6.4 mph 98 % 0.3 in
19:18 9.3 °F 9.0 °F 1027.0 in SSW 3.2 mph 6.4 mph 98 % 0.3 in
19:30 9.4 °F 9.1 °F 1027.0 in SSW 7.9 mph 8.0 mph 98 % 0.3 in
19:37 9.5 °F 9.2 °F 1027.3 in SW 7.9 mph 8.0 mph 98 % 0.3 in
19:42 9.7 °F 9.4 °F 1027.0 in SW 6.4 mph 12.9 mph 98 % 0.3 in
19:55 9.9 °F 9.6 °F 1027.3 in SSW 6.4 mph 9.7 mph 98 % 0.0 in
20:01 9.9 °F 9.6 °F 1027.3 in SW 7.9 mph 11.3 mph 98 % 0.0 in
20:07 9.9 °F 9.6 °F 1027.3 in SW 9.7 mph 11.3 mph 98 % 0.0 in
20:19 10.0 °F 9.7 °F 1027.3 in SSW 4.7 mph 12.9 mph 98 % 0.0 in
20:25 10.0 °F 9.7 °F 1027.3 in SW 6.4 mph 12.9 mph 98 % 0.0 in
20:31 10.0 °F 9.7 °F 1027.3 in SSW 6.4 mph 9.7 mph 98 % 0.0 in
20:37 9.9 °F 9.6 °F 1027.3 in SW 7.9 mph 9.7 mph 98 % 0.0 in
20:43 10.0 °F 9.7 °F 1027.3 in SW 7.9 mph 9.7 mph 98 % 0.0 in
20:49 10.0 °F 9.7 °F 1027.3 in SSW 4.7 mph 9.7 mph 98 % 0.0 in
20:55 10.0 °F 9.7 °F 1027.3 in SW 6.4 mph 9.7 mph 98 % 0.0 in
21:01 10.0 °F 9.7 °F 1027.3 in SW 14.3 mph 14.5 mph 98 % 0.0 in
21:07 10.0 °F 9.7 °F 1027.3 in SW 11.1 mph 19.3 mph 98 % 0.0 in
21:13 10.0 °F 9.7 °F 1027.3 in SW 7.9 mph 12.9 mph 98 % 0.0 in
21:19 9.9 °F 9.4 °F 1027.3 in SW 13.0 mph 17.7 mph 97 % 0.0 in
21:25 9.9 °F 9.4 °F 1027.0 in SW 9.7 mph 19.3 mph 97 % 0.0 in
21:31 9.9 °F 9.4 °F 1027.0 in SW 11.1 mph 14.5 mph 97 % 0.0 in
21:37 9.9 °F 9.4 °F 1027.3 in SW 13.0 mph 17.7 mph 97 % 0.0 in
21:43 9.9 °F 9.4 °F 1027.3 in SW 7.9 mph 12.9 mph 97 % 0.0 in
21:55 10.0 °F 9.5 °F 1027.3 in SSW 17.7 mph 19.3 mph 97 % 0.0 in
22:01 10.0 °F 9.5 °F 1027.3 in SW 9.7 mph 16.1 mph 97 % 0.0 in
22:07 10.0 °F 9.5 °F 1027.3 in SSW 11.1 mph 14.5 mph 97 % 0.0 in
22:13 10.0 °F 9.5 °F 1027.3 in SSW 19.5 mph 20.9 mph 97 % 0.0 in
22:19 10.1 °F 9.5 °F 1027.3 in SW 9.7 mph 19.3 mph 96 % 0.0 in
22:31 10.1 °F 9.5 °F 1027.3 in SW 4.7 mph 14.5 mph 96 % 0.0 in
22:49 10.1 °F 9.5 °F 1027.3 in SSW 6.4 mph 14.5 mph 96 % 0.0 in
23:01 9.9 °F 9.3 °F 1027.3 in SSW 9.7 mph 12.9 mph 96 % 0.0 in
23:13 9.8 °F 9.2 °F 1027.3 in SW 13.0 mph 17.7 mph 96 % 0.0 in
23:19 9.8 °F 9.2 °F 1027.3 in SW 16.3 mph 17.7 mph 96 % 0.0 in
23:31 9.8 °F 9.0 °F 1027.3 in SW 16.3 mph 19.3 mph 95 % 0.0 in
23:37 9.8 °F 9.0 °F 1027.3 in SSW 14.3 mph 19.3 mph 95 % 0.0 in
23:43 9.8 °F 9.0 °F 1027.0 in SW 16.3 mph 20.9 mph 95 % 0.0 in
23:49 9.7 °F 8.9 °F 1027.3 in SW 16.3 mph 17.7 mph 95 % 0.0 in
23:55 9.7 °F 8.9 °F 1027.0 in SSW 11.1 mph 24.1 mph 95 % 0.0 in
Meteo18
Compliments of Weather Underground - 4 mb

Script developed by  Jim McMurry - jmcmurry@mwt.net Adapted for the template by  Wim van der Kuil - Leuven-Template.eu

You find our weather info also at:

European Weather Network

Weather Underground

Equipment we use:

Weather-station
Davis Vue

Weather-program
Meteobridge

Weather-server
Raspberry PI 2 B+

Provider
1 and 1

Davis Vue

Meteobridge

Raspberry PI 2 B+

1 and 1